Beaumont / Port Arthur, TX

1:53 PM CDT on September 23, 2017 (GMT -0500)
Beaumont Municipal

Weather History for KBMT - January, 2014

Change the Weather History Date:

Thursday, January 16, 2014

  Actual Average (KBPT) Record (KBPT)
Temperature  
Mean Temperature 50 °F -  
Max Temperature 67 °F 61 °F 82 °F (2017)
Min Temperature 32 °F 42 °F 22 °F (1972)
Degree Days  
Heating Degree Days 16    
Moisture  
Dew Point 38 °F    
Average Humidity 66    
Maximum Humidity 100    
Minimum Humidity 32    
Precipitation  
Precipitation 0.00 in - - ()
Sea Level Pressure  
Sea Level Pressure 30.14 in    
Wind  
Wind Speed 4 mph (SSW)    
Max Wind Speed 16 mph    
Max Gust Speed 24 mph    
Visibility 10 miles    
Events      
Averages and records for this station are not official NWS values.
T = Trace of Precipitation, MM = Missing Value Source: NWS Daily Summary

Daily Weather History Graph

Daily Weather History Graph

Search for Another Location

Airport or City:

Trip Planner

Search our weather history database for the weather conditions in past years. The results will help you decide how hot, cold, wet, or windy it might be!

Date:

Astronomy

Jan. 16, 2014 Rise Set
Actual Time 7:13 AM CST 5:40 PM CST
Civil Twilight 6:47 AM CST 6:05 PM CST
Nautical Twilight 6:18 AM CST 6:35 PM CST
Astronomical Twilight 5:49 AM CST 7:04 PM CST
Moon 6:25 PM CST (1/16) 7:13 AM CST (1/16)
Length of Visible Light 11h 18m
Length of Day
10h 26m
Full, 100% of the Moon is Illuminated
Jan 16
Full
Jan 23
Last Quarter
Jan 30
New
Feb 6
First Quarter
Feb 14
Full

Hourly Weather History & Observations

Time (CST) Temp. Windchill Dew Point Humidity Pressure Visibility Wind Dir Wind Speed Gust Speed Precip Events Conditions
12:15 AM 34.0 °F - 30.7 °F 88% 30.22 in 10.0 mi Calm Calm - N/A   Clear
12:35 AM 34.5 °F - 30.7 °F 86% 30.22 in 10.0 mi Calm Calm - N/A   Clear
12:55 AM 34.0 °F - 31.8 °F 92% 30.21 in 10.0 mi Calm Calm - N/A   Clear
1:15 AM 33.8 °F - 30.9 °F 89% 30.20 in 10.0 mi Calm Calm - N/A   Clear
1:35 AM 33.8 °F 29.6 °F 31.1 °F 90% 30.20 in 10.0 mi SE 4.6 mph - N/A   Clear
1:55 AM 33.1 °F 30.0 °F 31.3 °F 93% 30.20 in 10.0 mi South 3.5 mph - N/A   Clear
2:15 AM 34.3 °F 31.4 °F 30.0 °F 84% 30.19 in 10.0 mi SSE 3.5 mph - N/A   Clear
2:35 AM 34.9 °F 30.8 °F 29.3 °F 80% 30.18 in 10.0 mi SSE 4.6 mph - N/A   Clear
2:55 AM 36.1 °F 33.5 °F 29.1 °F 76% 30.18 in 10.0 mi South 3.5 mph - N/A   Clear
3:15 AM 34.7 °F - 29.3 °F 81% 30.18 in 10.0 mi Calm Calm - N/A   Clear
3:35 AM 34.5 °F 30.4 °F 29.3 °F 81% 30.17 in 10.0 mi SSE 4.6 mph - N/A   Clear
3:55 AM 34.5 °F - 30.0 °F 84% 30.17 in 10.0 mi Calm Calm - N/A   Clear
4:15 AM 33.1 °F 30.0 °F 29.7 °F 87% 30.16 in 10.0 mi SSE 3.5 mph - N/A   Clear
4:35 AM 33.3 °F - 29.7 °F 87% 30.16 in 10.0 mi Calm Calm - N/A   Clear
5:15 AM 34.3 °F - 30.2 °F 85% 30.15 in 10.0 mi Calm Calm - N/A   Clear
5:35 AM 32.9 °F - 30.2 °F 90% 30.15 in 10.0 mi Calm Calm - N/A   Clear
5:55 AM 32.5 °F 29.3 °F 30.7 °F 93% 30.14 in 10.0 mi SE 3.5 mph - N/A   Clear
6:15 AM 33.8 °F 30.8 °F 32.2 °F 94% 30.13 in 10.0 mi SSE 3.5 mph - N/A   Clear
6:35 AM 35.6 °F 32.8 °F 34.0 °F 94% 30.13 in 10.0 mi SSE 3.5 mph - N/A   Clear
6:55 AM 37.0 °F 34.5 °F 37.0 °F 100% 30.14 in 10.0 mi SSE 3.5 mph - N/A   Clear
7:15 AM - - - N/A% 30.14 in 10.0 mi South 4.6 mph - N/A   Clear
7:35 AM 39.0 °F 36.8 °F 39.0 °F 100% 30.15 in 10.0 mi South 3.5 mph - N/A   Clear
7:55 AM - - - N/A% 30.15 in 10.0 mi Calm Calm - N/A   Clear
8:15 AM - - - N/A% 30.16 in 10.0 mi South 6.9 mph - N/A   Clear
8:35 AM 46.0 °F 42.5 °F 42.6 °F 88% 30.17 in 10.0 mi SSW 6.9 mph - N/A   Clear
8:55 AM 48.6 °F - 42.4 °F 79% 30.18 in 10.0 mi South 3.5 mph - N/A   Clear
9:15 AM 52.2 °F - 43.7 °F 73% 30.19 in 10.0 mi South 4.6 mph - N/A   Clear
9:35 AM 55.8 °F - 43.7 °F 64% 30.19 in 10.0 mi South 6.9 mph - N/A   Clear
9:55 AM 58.1 °F - 42.3 °F 56% 30.19 in 10.0 mi SSW 5.8 mph - N/A   Clear
10:15 AM 60.4 °F - 40.1 °F 47% 30.19 in 10.0 mi SW 9.2 mph - N/A   Clear
10:35 AM 62.6 °F - 41.0 °F 45% 30.19 in 10.0 mi SW 11.5 mph 17.3 mph N/A   Clear
10:55 AM 63.3 °F - 37.0 °F 38% 30.18 in 10.0 mi SW 11.5 mph 19.6 mph N/A   Clear
11:15 AM 63.9 °F - 36.9 °F 37% 30.18 in 10.0 mi SW 9.2 mph 19.6 mph N/A   Clear
11:35 AM 64.9 °F - 36.0 °F 34% 30.17 in 10.0 mi SW 13.8 mph 20.7 mph N/A   Clear
11:55 AM 65.5 °F - 36.0 °F 34% 30.15 in 10.0 mi SW 15.0 mph 19.6 mph N/A   Clear
12:15 PM 66.0 °F - 36.0 °F 33% 30.14 in 10.0 mi SSW 13.8 mph 21.9 mph N/A   Clear
12:35 PM 66.7 °F - 37.0 °F 33% 30.12 in 10.0 mi SSW 15.0 mph 19.6 mph N/A   Clear
12:55 PM 66.6 °F - 36.5 °F 33% 30.11 in 10.0 mi SSW 15.0 mph 20.7 mph N/A   Clear
1:15 PM 67.3 °F - 36.3 °F 32% 30.10 in 10.0 mi SW 16.1 mph 20.7 mph N/A   Clear
1:35 PM 66.9 °F - 36.9 °F 33% 30.10 in 10.0 mi WSW 13.8 mph 19.6 mph N/A   Clear
1:55 PM 67.1 °F - 37.4 °F 34% 30.09 in 10.0 mi SW 12.7 mph 24.2 mph N/A   Clear
2:35 PM 67.5 °F - 37.9 °F 34% 30.08 in 10.0 mi SW 6.9 mph - N/A   Clear
2:55 PM 67.6 °F - 39.6 °F 36% 30.07 in 10.0 mi SSW 11.5 mph 23.0 mph N/A   Clear
3:15 PM 67.5 °F - 39.9 °F 37% 30.08 in 10.0 mi SSW 9.2 mph 17.3 mph N/A   Clear
3:35 PM 67.1 °F - 40.8 °F 38% 30.08 in 10.0 mi SSW 12.7 mph - N/A   Clear
3:55 PM 66.6 °F - 42.3 °F 41% 30.08 in 10.0 mi SW 11.5 mph - N/A   Clear
4:15 PM 66.2 °F - 43.0 °F 43% 30.08 in 10.0 mi SSW 10.4 mph 19.6 mph N/A   Clear
4:35 PM 65.1 °F - 43.2 °F 45% 30.08 in 10.0 mi SSW 9.2 mph - N/A   Clear
4:55 PM 64.4 °F - 44.1 °F 48% 30.08 in 10.0 mi SSW 8.1 mph - N/A   Clear
5:15 PM 62.6 °F - 44.8 °F 52% 30.08 in 10.0 mi SSW 6.9 mph - N/A   Clear
5:35 PM 60.4 °F - 45.0 °F 57% 30.09 in 10.0 mi SSW 5.8 mph - N/A   Clear
6:15 PM 57.6 °F - 45.5 °F 64% 30.10 in 10.0 mi SSW 6.9 mph - N/A   Clear
6:35 PM 56.1 °F - 45.5 °F 68% 30.10 in 10.0 mi SSW 4.6 mph - N/A   Clear
6:55 PM 55.9 °F - 45.7 °F 68% 30.10 in 10.0 mi SSW 4.6 mph - N/A   Clear
7:15 PM 55.0 °F - 45.5 °F 70% 30.11 in 10.0 mi Calm Calm - N/A   Clear
7:35 PM 54.0 °F - 45.5 °F 73% 30.11 in 10.0 mi Calm Calm - N/A   Clear
7:55 PM 53.1 °F - 45.5 °F 75% 30.12 in 10.0 mi Calm Calm - N/A   Clear
8:15 PM 50.2 °F - 45.3 °F 83% 30.13 in 10.0 mi Calm Calm - N/A   Clear
8:35 PM 49.5 °F - 45.5 °F 86% 30.13 in 10.0 mi Calm Calm - N/A   Clear
8:55 PM - - - N/A% 30.13 in 10.0 mi Calm Calm - N/A   Clear
9:15 PM 49.6 °F - 48.4 °F 95% 30.13 in 10.0 mi Calm Calm - N/A   Clear
9:35 PM - - - N/A% 30.14 in 10.0 mi Calm Calm - N/A   Clear
9:55 PM - - - N/A% 30.14 in 10.0 mi Calm Calm - N/A   Clear
10:15 PM - - - N/A% 30.15 in 10.0 mi Calm Calm - N/A   Clear
10:35 PM - - - N/A% 30.15 in 10.0 mi Calm Calm - N/A   Clear
10:55 PM - - - N/A% 30.15 in 4.0 mi Calm Calm - N/A   Haze
11:15 PM - - - N/A% 30.15 in 10.0 mi Calm Calm - N/A   Clear
11:35 PM - - - N/A% 30.15 in 10.0 mi Calm Calm - N/A   Clear
11:55 PM - - - N/A% 30.16 in 5.0 mi Calm Calm - N/A   Haze